| time (UTC) | temp F | wind direction | speed MPH | gust MPH | rain 1hr in | rain 24hr in | rain mn in | humidity % | barometer mb |
| 20260906074006 | 77 | 232 | 3.0 | 7.0 | 0.00 | 0.00 | 0.00 | 42 | 1025.5 |
| 20260906073738 | 77 | 229 | 3.0 | 10.0 | 0.00 | 0.00 | 0.00 | 42 | 1025.5 |
| 20260906073505 | 77 | 227 | 2.0 | 10.0 | 0.00 | 0.00 | 0.00 | 42 | 1025.4 |
| 20260906073006 | 76 | 230 | 3.0 | 10.0 | 0.00 | 0.00 | 0.00 | 42 | 1025.4 |
| 20260906072739 | 76 | 229 | 4.0 | 10.0 | 0.00 | 0.00 | 0.00 | 43 | 1025.4 |
| 20260906072506 | 76 | 232 | 4.0 | 10.0 | 0.00 | 0.00 | 0.00 | 42 | 1025.3 |
| 20260906072006 | 76 | 234 | 4.0 | 10.0 | 0.00 | 0.00 | 0.00 | 42 | 1025.3 |
| 20260906071738 | 76 | 232 | 4.0 | 9.0 | 0.00 | 0.00 | 0.00 | 42 | 1025.3 |
| 20260906071507 | 76 | 234 | 4.0 | 8.0 | 0.00 | 0.00 | 0.00 | 42 | 1025.4 |
| 20260906071238 | 75 | 237 | 4.0 | 8.0 | 0.00 | 0.00 | 0.00 | 43 | 1025.3 |
| 20260906070739 | 75 | 240 | 4.0 | 8.0 | 0.00 | 0.00 | 0.00 | 43 | 1025.3 |
| 20260906070507 | 75 | 238 | 4.0 | 8.0 | 0.00 | 0.00 | 0.00 | 43 | 1025.3 |
| 20260906070006 | 75 | 240 | 3.0 | 9.0 | 0.00 | 0.00 | 0.00 | 43 | 1025.2 |
| 20260906065739 | 74 | 244 | 3.0 | 9.0 | 0.00 | 0.00 | 0.00 | 44 | 1025.3 |
| 20260906065508 | 74 | 248 | 3.0 | 9.0 | 0.00 | 0.00 | 0.00 | 44 | 1025.2 |
| 20260906065006 | 74 | 253 | 4.0 | 11.0 | 0.00 | 0.00 | 0.00 | 44 | 1025.1 |
| 20260906064742 | 74 | 254 | 4.0 | 11.0 | 0.00 | 0.00 | 0.00 | 44 | 1025.2 |
| 20260906064719 | 74 | 254 | 5.0 | 11.0 | 0.00 | 0.00 | 0.00 | 44 | 1025.1 |
| 20260906063737 | 73 | 250 | 5.0 | 11.0 | 0.00 | 0.00 | 0.00 | 45 | 1025.1 |
| 20260906063506 | 73 | 252 | 4.0 | 11.0 | 0.00 | 0.00 | 0.00 | 45 | 1025.2 |
| 20260906063006 | 72 | 254 | 4.0 | 10.0 | 0.00 | 0.00 | 0.00 | 45 | 1025.1 |
| 20260906062743 | 72 | 259 | 5.0 | 10.0 | 0.00 | 0.00 | 0.00 | 45 | 1025.2 |
| 20260906062738 | 72 | 256 | 5.0 | 10.0 | 0.00 | 0.00 | 0.00 | 45 | 1025.2 |
| 20260906062013 | 72 | 262 | 3.0 | 8.0 | 0.00 | 0.00 | 0.00 | 45 | 1025.1 |
| 20260906062007 | 72 | 261 | 4.0 | 10.0 | 0.00 | 0.00 | 0.00 | 45 | 1025.1 |
| 20260906061734 | 72 | 263 | 3.0 | 8.0 | 0.00 | 0.00 | 0.00 | 45 | 1025.2 |
| 20260906061006 | 72 | 265 | 2.0 | 6.0 | 0.00 | 0.00 | 0.00 | 46 | 1024.9 |
| 20260906060733 | 72 | 271 | 2.0 | 6.0 | 0.00 | 0.00 | 0.00 | 46 | 1024.9 |
| 20260906060506 | 72 | 281 | 2.0 | 6.0 | 0.00 | 0.00 | 0.00 | 46 | 1024.9 |
| 20260906060007 | 72 | 294 | 2.0 | 5.0 | 0.00 | 0.00 | 0.00 | 46 | 1024.8 |
| 20260906055732 | 72 | 291 | 2.0 | 5.0 | 0.00 | 0.00 | 0.00 | 46 | 1024.8 |
| 20260906055506 | 72 | 289 | 2.0 | 6.0 | 0.00 | 0.00 | 0.00 | 46 | 1024.7 |
| 20260906055005 | 72 | 287 | 2.0 | 6.0 | 0.00 | 0.00 | 0.00 | 46 | 1024.7 |
| 20260906054742 | 72 | 288 | 3.0 | 6.0 | 0.00 | 0.00 | 0.00 | 46 | 1024.6 |
| 20260906054735 | 72 | 289 | 2.0 | 6.0 | 0.00 | 0.00 | 0.00 | 46 | 1024.6 |
| 20260906054007 | 72 | 283 | 3.0 | 6.0 | 0.00 | 0.00 | 0.00 | 46 | 1024.6 |
| 20260906053732 | 72 | 277 | 3.0 | 6.0 | 0.00 | 0.00 | 0.00 | 46 | 1024.5 |
| 20260906053504 | 71 | 275 | 2.0 | 5.0 | 0.00 | 0.00 | 0.00 | 47 | 1024.4 |
| 20260906053458 | 72 | 277 | 2.0 | 5.0 | 0.00 | 0.00 | 0.00 | 46 | 1024.5 |
| 20260906052732 | 72 | 282 | 2.0 | 5.0 | 0.00 | 0.00 | 0.00 | 46 | 1024.4 |
| 20260906052501 | 72 | 283 | 2.0 | 5.0 | 0.00 | 0.00 | 0.00 | 46 | 1024.4 |
| 20260906052000 | 72 | 282 | 3.0 | 6.0 | 0.00 | 0.00 | 0.00 | 46 | 1024.2 |
| 20260906051732 | 72 | 279 | 2.0 | 6.0 | 0.00 | 0.00 | 0.00 | 46 | 1024.2 |
| 20260906051503 | 72 | 279 | 3.0 | 6.0 | 0.00 | 0.00 | 0.00 | 46 | 1024.3 |
| 20260906051002 | 72 | 272 | 3.0 | 6.0 | 0.00 | 0.00 | 0.00 | 46 | 1024.2 |
| 20260906050732 | 72 | 274 | 2.0 | 7.0 | 0.00 | 0.00 | 0.00 | 46 | 1024.3 |
| 20260906050501 | 72 | 279 | 2.0 | 7.0 | 0.00 | 0.00 | 0.00 | 46 | 1024.1 |
| 20260906045959 | 72 | 287 | 2.0 | 7.0 | 0.00 | 0.00 | 0.00 | 45 | 1024.1 |
| 20260906045730 | 72 | 283 | 3.0 | 7.0 | 0.00 | 0.00 | 0.00 | 45 | 1024.1 |
| 20260906045458 | 72 | 274 | 4.0 | 7.0 | 0.00 | 0.00 | 0.00 | 45 | 1024.1 |
| 20260906044958 | 72 | 272 | 4.0 | 9.0 | 0.00 | 0.00 | 0.00 | 45 | 1024.1 |
| 20260906044731 | 72 | 276 | 3.0 | 9.0 | 0.00 | 0.00 | 0.00 | 45 | 1023.9 |
| 20260906044457 | 73 | 282 | 2.0 | 9.0 | 0.00 | 0.00 | 0.00 | 44 | 1023.9 |
| 20260906043957 | 73 | 279 | 3.0 | 9.0 | 0.00 | 0.00 | 0.00 | 44 | 1024.2 |
| 20260906043731 | 73 | 278 | 4.0 | 9.0 | 0.00 | 0.00 | 0.00 | 44 | 1024.1 |
| 20260906043458 | 73 | 276 | 4.0 | 9.0 | 0.00 | 0.00 | 0.00 | 44 | 1023.9 |
| 20260906042958 | 73 | 276 | 3.0 | 9.0 | 0.00 | 0.00 | 0.00 | 44 | 1023.9 |
| 20260906042729 | 73 | 274 | 3.0 | 9.0 | 0.00 | 0.00 | 0.00 | 44 | 1023.8 |
| 20260906042458 | 73 | 270 | 3.0 | 9.0 | 0.00 | 0.00 | 0.00 | 44 | 1023.9 |
| 20260906041957 | 73 | 268 | 3.0 | 9.0 | 0.00 | 0.00 | 0.00 | 44 | 1023.8 |
| 20260906041728 | 73 | 268 | 4.0 | 8.0 | 0.00 | 0.00 | 0.00 | 44 | 1023.8 |
| 20260906041457 | 73 | 274 | 4.0 | 7.0 | 0.00 | 0.00 | 0.00 | 44 | 1023.7 |
| 20260906040958 | 73 | 283 | 2.0 | 6.0 | 0.00 | 0.00 | 0.00 | 44 | 1023.8 |
| 20260906040727 | 72 | 290 | 2.0 | 6.0 | 0.00 | 0.00 | 0.00 | 44 | 1023.8 |
| 20260906040458 | 73 | 288 | 1.0 | 5.0 | 0.00 | 0.00 | 0.00 | 44 | 1023.8 |
| 20260906035958 | 73 | 291 | 1.0 | 5.0 | 0.00 | 0.00 | 0.00 | 44 | 1023.8 |
| 20260906035728 | 73 | 291 | 1.0 | 5.0 | 0.00 | 0.00 | 0.00 | 44 | 1023.7 |
| 20260906035458 | 73 | 297 | 1.0 | 5.0 | 0.00 | 0.00 | 0.00 | 44 | 1023.7 |
| 20260906034957 | 73 | 293 | 1.0 | 5.0 | 0.00 | 0.00 | 0.00 | 44 | 1023.7 |
| 20260906034726 | 72 | 292 | 1.0 | 5.0 | 0.00 | 0.00 | 0.00 | 45 | 1023.7 |
| 20260906034458 | 72 | 293 | 0.0 | 3.0 | 0.00 | 0.00 | 0.00 | 45 | 1023.7 |
| 20260906033958 | 72 | 280 | 0.0 | 2.0 | 0.00 | 0.00 | 0.00 | 47 | 1023.8 |
| 20260906033727 | 71 | 311 | 0.0 | 2.0 | 0.00 | 0.00 | 0.00 | 46 | 1023.8 |
| 20260906033458 | 71 | 282 | 0.0 | 2.0 | 0.00 | 0.00 | 0.00 | 47 | 1023.8 |
| 20260906032959 | 72 | 317 | 0.0 | 2.0 | 0.00 | 0.00 | 0.00 | 47 | 1023.8 |
| 20260906032727 | 72 | 294 | 0.0 | 2.0 | 0.00 | 0.00 | 0.00 | 46 | 1023.7 |
| 20260906032456 | 72 | 299 | 0.0 | 2.0 | 0.00 | 0.00 | 0.00 | 46 | 1023.8 |
| 20260906031955 | 71 | 256 | 0.0 | 2.0 | 0.00 | 0.00 | 0.00 | 47 | 1023.6 |
| 20260906031727 | 71 | 235 | 0.0 | 2.0 | 0.00 | 0.00 | 0.00 | 47 | 1023.6 |
| 20260906031456 | 70 | 222 | 0.0 | 4.0 | 0.00 | 0.00 | 0.00 | 49 | 1023.5 |
| 20260906031000 | 71 | 216 | 0.0 | 4.0 | 0.00 | 0.00 | 0.00 | 49 | 1023.6 |
| 20260906030727 | 71 | 213 | 0.0 | 4.0 | 0.00 | 0.00 | 0.00 | 49 | 1023.6 |
| 20260906030456 | 71 | 217 | 0.0 | 4.0 | 0.00 | 0.00 | 0.00 | 49 | 1023.7 |
| 20260906030225 | 72 | 256 | 0.0 | 4.0 | 0.00 | 0.00 | 0.00 | 48 | 1023.6 |
| 20260906025727 | 72 | 281 | 1.0 | 4.0 | 0.00 | 0.00 | 0.00 | 47 | 1023.6 |
| 20260906025505 | 73 | 311 | 0.0 | 7.0 | 0.00 | 0.00 | 0.00 | 44 | 1023.6 |
| 20260906025457 | 73 | 300 | 0.0 | 4.0 | 0.00 | 0.00 | 0.00 | 44 | 1023.7 |
| 20260906024726 | 73 | 296 | 0.0 | 7.0 | 0.00 | 0.00 | 0.00 | 45 | 1023.5 |
| 20260906024453 | 73 | 282 | 1.0 | 7.0 | 0.00 | 0.00 | 0.00 | 45 | 1023.6 |
| 20260906023955 | 73 | 263 | 2.0 | 7.0 | 0.00 | 0.00 | 0.00 | 44 | 1023.8 |
| 20260906023733 | 74 | 272 | 2.0 | 8.0 | 0.00 | 0.00 | 0.00 | 43 | 1023.9 |
| 20260906023729 | 74 | 271 | 2.0 | 7.0 | 0.00 | 0.00 | 0.00 | 44 | 1023.9 |
| 20260906023223 | 74 | 267 | 1.0 | 8.0 | 0.00 | 0.00 | 0.00 | 43 | 1023.8 |
| 20260906022727 | 74 | 274 | 1.0 | 8.0 | 0.00 | 0.00 | 0.00 | 43 | 1023.7 |
| 20260906022451 | 74 | 280 | 1.0 | 8.0 | 0.00 | 0.00 | 0.00 | 43 | 1023.8 |
| 20260906021951 | 74 | 293 | 1.0 | 8.0 | 0.00 | 0.00 | 0.00 | 42 | 1023.8 |
| 20260906021728 | 74 | 287 | 1.0 | 8.0 | 0.00 | 0.00 | 0.00 | 42 | 1023.8 |
| 20260906021451 | 74 | 286 | 1.0 | 4.0 | 0.00 | 0.00 | 0.00 | 42 | 1023.8 |
| 20260906020951 | 74 | 287 | 0.0 | 3.0 | 0.00 | 0.00 | 0.00 | 42 | 1023.7 |
| 20260906020726 | 74 | 287 | 0.0 | 3.0 | 0.00 | 0.00 | 0.00 | 42 | 1023.8 |
| 20260906020451 | 74 | 296 | 1.0 | 3.0 | 0.00 | 0.00 | 0.00 | 42 | 1023.7 |
| 20260906015951 | 74 | 310 | 0.0 | 3.0 | 0.00 | 0.00 | 0.00 | 42 | 1023.6 |
| 20260906015726 | 74 | 317 | 0.0 | 2.0 | 0.00 | 0.00 | 0.00 | 42 | 1023.7 |
| 20260906015454 | 74 | 321 | 0.0 | 4.0 | 0.00 | 0.00 | 0.00 | 42 | 1023.6 |
| 20260906014951 | 74 | 327 | 0.0 | 7.0 | 0.00 | 0.00 | 0.00 | 43 | 1023.7 |
| 20260906014726 | 74 | 316 | 0.0 | 7.0 | 0.00 | 0.00 | 0.00 | 43 | 1023.7 |
| 20260906014451 | 74 | 294 | 0.0 | 7.0 | 0.00 | 0.00 | 0.00 | 42 | 1023.7 |
| 20260906014222 | 74 | 259 | 2.0 | 7.0 | 0.00 | 0.00 | 0.00 | 42 | 1024.2 |
| 20260906013726 | 74 | 260 | 2.0 | 7.0 | 0.00 | 0.00 | 0.00 | 42 | 1024.2 |
| 20260906013448 | 74 | 260 | 2.0 | 7.0 | 0.00 | 0.00 | 0.00 | 42 | 1024.2 |
| 20260906012947 | 75 | 264 | 2.0 | 6.0 | 0.00 | 0.00 | 0.00 | 41 | 1024.2 |
| 20260906012728 | 75 | 268 | 2.0 | 6.0 | 0.00 | 0.00 | 0.00 | 41 | 1024.2 |
| 20260906012448 | 76 | 268 | 3.0 | 7.0 | 0.00 | 0.00 | 0.00 | 40 | 1024.3 |
| 20260906011947 | 76 | 282 | 2.0 | 7.0 | 0.00 | 0.00 | 0.00 | 39 | 1024.2 |
| 20260906011728 | 76 | 279 | 2.0 | 7.0 | 0.00 | 0.00 | 0.00 | 39 | 1024.2 |
| 20260906011446 | 76 | 277 | 2.0 | 7.0 | 0.00 | 0.00 | 0.00 | 39 | 1024.2 |
| 20260906010946 | 76 | 262 | 3.0 | 7.0 | 0.00 | 0.00 | 0.00 | 38 | 1024.3 |
| 20260906010727 | 76 | 268 | 2.0 | 7.0 | 0.00 | 0.00 | 0.00 | 39 | 1024.3 |
| 20260906010446 | 76 | 273 | 2.0 | 7.0 | 0.00 | 0.00 | 0.00 | 39 | 1024.2 |
| 20260906005946 | 76 | 336 | 1.0 | 3.0 | 0.00 | 0.00 | 0.00 | 39 | 1024.1 |
| 20260906005728 | 76 | 20 | 0.0 | 3.0 | 0.00 | 0.00 | 0.00 | 39 | 1024.1 |
| 20260906005714 | 76 | 66 | 0.0 | 3.0 | 0.00 | 0.00 | 0.00 | 39 | 1024.1 |
| 20260906004946 | 76 | 245 | 0.0 | 3.0 | 0.00 | 0.00 | 0.00 | 39 | 1024.1 |
| 20260906004727 | 76 | 257 | 0.0 | 3.0 | 0.00 | 0.00 | 0.00 | 39 | 1024.1 |
| 20260906004448 | 76 | 288 | 1.0 | 3.0 | 0.00 | 0.00 | 0.00 | 39 | 1024.1 |
| 20260906003951 | 76 | 317 | 1.0 | 3.0 | 0.00 | 0.00 | 0.00 | 39 | 1024.6 |
| 20260906003727 | 76 | 325 | 1.0 | 3.0 | 0.00 | 0.00 | 0.00 | 40 | 1024.6 |
| 20260906003446 | 76 | 323 | 1.0 | 3.0 | 0.00 | 0.00 | 0.00 | 40 | 1024.6 |
| 20260906002946 | 76 | 331 | 0.0 | 4.0 | 0.00 | 0.00 | 0.00 | 40 | 1024.6 |
| 20260906002727 | 76 | 329 | 0.0 | 4.0 | 0.00 | 0.00 | 0.00 | 40 | 1024.5 |
| 20260906002446 | 76 | 328 | 0.0 | 4.0 | 0.00 | 0.00 | 0.00 | 40 | 1024.5 |
| 20260906001946 | 76 | 4 | 1.0 | 4.0 | 0.00 | 0.00 | 0.00 | 40 | 1024.4 |
| 20260906001729 | 76 | 32 | 2.0 | 4.0 | 0.00 | 0.00 | 0.00 | 41 | 1024.5 |
| 20260906001446 | 76 | 53 | 2.0 | 4.0 | 0.00 | 0.00 | 0.00 | 40 | 1024.4 |
| 20260906000946 | 76 | 96 | 1.0 | 4.0 | 0.00 | 0.00 | 0.00 | 41 | 1024.4 |
| 20260906000727 | 76 | 95 | 1.0 | 3.0 | 0.00 | 0.00 | 0.00 | 41 | 1024.4 |
| 20260906000447 | 76 | 91 | 1.0 | 3.0 | 0.00 | 0.00 | 0.00 | 41 | 1024.4 |
| 20260905235946 | 76 | 37 | 0.0 | 4.0 | 0.00 | 0.00 | 0.00 | 40 | 1024.3 |
| 20260905235727 | 77 | 25 | 0.0 | 4.0 | 0.00 | 0.00 | 0.00 | 40 | 1024.3 |
| 20260905235446 | 77 | 353 | 0.0 | 4.0 | 0.00 | 0.00 | 0.00 | 39 | 1024.4 |
| 20260905234946 | 78 | 276 | 1.0 | 4.0 | 0.00 | 0.00 | 0.00 | 38 | 1024.4 |
| 20260905234727 | 78 | 266 | 1.0 | 4.0 | 0.00 | 0.00 | 0.00 | 37 | 1024.3 |
| 20260905234448 | 78 | 261 | 1.0 | 4.0 | 0.00 | 0.00 | 0.00 | 37 | 1024.3 |
| 20260905233945 | 78 | 278 | 1.0 | 4.0 | 0.00 | 0.00 | 0.00 | 37 | 1024.4 |
| 20260905233727 | 78 | 292 | 1.0 | 4.0 | 0.00 | 0.00 | 0.00 | 37 | 1024.3 |
| 20260905233445 | 79 | 301 | 1.0 | 4.0 | 0.00 | 0.00 | 0.00 | 36 | 1024.3 |
| 20260905232945 | 79 | 303 | 1.0 | 4.0 | 0.00 | 0.00 | 0.00 | 36 | 1024.3 |
| 20260905232727 | 79 | 301 | 1.0 | 4.0 | 0.00 | 0.00 | 0.00 | 36 | 1024.3 |
| 20260905232446 | 79 | 302 | 1.0 | 4.0 | 0.00 | 0.00 | 0.00 | 36 | 1024.2 |
| 20260905231946 | 79 | 311 | 1.0 | 3.0 | 0.00 | 0.00 | 0.00 | 36 | 1024.3 |
| 20260905231726 | 79 | 321 | 1.0 | 3.0 | 0.00 | 0.00 | 0.00 | 36 | 1024.3 |
| 20260905231446 | 79 | 333 | 1.0 | 3.0 | 0.00 | 0.00 | 0.00 | 37 | 1024.2 |
| 20260905230946 | 78 | 309 | 1.0 | 3.0 | 0.00 | 0.00 | 0.00 | 37 | 1024.4 |
| 20260905230926 | 78 | 306 | 0.0 | 3.0 | 0.00 | 0.00 | 0.00 | 37 | 1024.4 |
| 20260905225947 | 79 | 341 | 0.0 | 2.0 | 0.00 | 0.00 | 0.00 | 36 | 1024.4 |
| 20260905225726 | 79 | 331 | 0.0 | 2.0 | 0.00 | 0.00 | 0.00 | 37 | 1024.5 |
| 20260905225717 | 79 | 330 | 0.0 | 4.0 | 0.00 | 0.00 | 0.00 | 36 | 1024.5 |
| 20260905224946 | 80 | 316 | 0.0 | 8.0 | 0.00 | 0.00 | 0.00 | 35 | 1024.5 |
| 20260905224726 | 80 | 303 | 0.0 | 8.0 | 0.00 | 0.00 | 0.00 | 35 | 1024.5 |
| 20260905224445 | 80 | 277 | 1.0 | 8.0 | 0.00 | 0.00 | 0.00 | 35 | 1024.5 |
| 20260905223945 | 80 | 257 | 2.0 | 8.0 | 0.00 | 0.00 | 0.00 | 34 | 1024.5 |
| 20260905223727 | 81 | 257 | 2.0 | 8.0 | 0.00 | 0.00 | 0.00 | 34 | 1024.5 |
| 20260905223443 | 81 | 270 | 2.0 | 8.0 | 0.00 | 0.00 | 0.00 | 34 | 1024.5 |
| 20260905222944 | 80 | 292 | 1.0 | 6.0 | 0.00 | 0.00 | 0.00 | 34 | 1024.5 |
| 20260905222728 | 80 | 291 | 1.0 | 6.0 | 0.00 | 0.00 | 0.00 | 34 | 1024.5 |
| 20260905222714 | 81 | 299 | 1.0 | 6.0 | 0.00 | 0.00 | 0.00 | 34 | 1024.6 |
| 20260905221944 | 81 | 308 | 1.0 | 6.0 | 0.00 | 0.00 | 0.00 | 34 | 1024.3 |
| 20260905221728 | 81 | 314 | 1.0 | 8.0 | 0.00 | 0.00 | 0.00 | 34 | 1024.4 |
| 20260905221441 | 81 | 300 | 1.0 | 11.0 | 0.00 | 0.00 | 0.00 | 34 | 1024.3 |
| 20260905221217 | 81 | 292 | 0.0 | 11.0 | 0.00 | 0.00 | 0.00 | 34 | 1024.3 |
| 20260905220728 | 82 | 279 | 1.0 | 11.0 | 0.00 | 0.00 | 0.00 | 33 | 1024.3 |
| 20260905220442 | 82 | 273 | 2.0 | 11.0 | 0.00 | 0.00 | 0.00 | 33 | 1024.3 |
| 20260905220218 | 82 | 275 | 2.0 | 11.0 | 0.00 | 0.00 | 0.00 | 32 | 1024.4 |
| 20260905215725 | 82 | 273 | 2.0 | 11.0 | 0.00 | 0.00 | 0.00 | 33 | 1024.3 |
| 20260905215711 | 82 | 266 | 2.0 | 8.0 | 0.00 | 0.00 | 0.00 | 33 | 1024.4 |
| 20260905214942 | 82 | 257 | 2.0 | 8.0 | 0.00 | 0.00 | 0.00 | 32 | 1024.3 |
| 20260905214727 | 82 | 263 | 2.0 | 8.0 | 0.00 | 0.00 | 0.00 | 33 | 1024.4 |
| 20260905214443 | 81 | 283 | 2.0 | 8.0 | 0.00 | 0.00 | 0.00 | 33 | 1024.3 |
| 20260905214209 | 81 | 299 | 2.0 | 8.0 | 0.00 | 0.00 | 0.00 | 33 | 1024.3 |
| 20260905213724 | 82 | 306 | 2.0 | 8.0 | 0.00 | 0.00 | 0.00 | 33 | 1024.4 |
| 20260905213442 | 82 | 301 | 2.0 | 8.0 | 0.00 | 0.00 | 0.00 | 33 | 1024.4 |
| 20260905212942 | 82 | 288 | 2.0 | 8.0 | 0.00 | 0.00 | 0.00 | 33 | 1024.3 |
| 20260905212725 | 82 | 268 | 2.0 | 8.0 | 0.00 | 0.00 | 0.00 | 33 | 1024.2 |
| 20260905212441 | 82 | 251 | 1.0 | 8.0 | 0.00 | 0.00 | 0.00 | 33 | 1024.3 |
| 20260905211941 | 82 | 259 | 0.0 | 5.0 | 0.00 | 0.00 | 0.00 | 33 | 1024.2 |
| 20260905211725 | 82 | 273 | 1.0 | 5.0 | 0.00 | 0.00 | 0.00 | 33 | 1024.2 |
| 20260905211442 | 83 | 273 | 2.0 | 6.0 | 0.00 | 0.00 | 0.00 | 32 | 1024.1 |
| 20260905210941 | 83 | 276 | 2.0 | 10.0 | 0.00 | 0.00 | 0.00 | 32 | 1024.3 |
| 20260905210723 | 83 | 276 | 2.0 | 10.0 | 0.00 | 0.00 | 0.00 | 31 | 1024.2 |
| 20260905210441 | 83 | 284 | 2.0 | 10.0 | 0.00 | 0.00 | 0.00 | 31 | 1024.2 |
| 20260905205940 | 84 | 267 | 3.0 | 10.0 | 0.00 | 0.00 | 0.00 | 31 | 1024.2 |
| 20260905205722 | 85 | 253 | 4.0 | 10.0 | 0.00 | 0.00 | 0.00 | 30 | 1024.3 |
| 20260905205440 | 85 | 244 | 4.0 | 15.0 | 0.00 | 0.00 | 0.00 | 30 | 1024.3 |
| 20260905204939 | 85 | 242 | 4.0 | 15.0 | 0.00 | 0.00 | 0.00 | 30 | 1024.5 |
| 20260905204722 | 85 | 252 | 4.0 | 15.0 | 0.00 | 0.00 | 0.00 | 30 | 1024.3 |
| 20260905204440 | 85 | 253 | 5.0 | 15.0 | 0.00 | 0.00 | 0.00 | 29 | 1024.3 |
| 20260905203937 | 85 | 249 | 7.0 | 15.0 | 0.00 | 0.00 | 0.00 | 29 | 1024.4 |
| 20260905203721 | 85 | 238 | 8.0 | 15.0 | 0.00 | 0.00 | 0.00 | 29 | 1024.3 |
| 20260905203438 | 85 | 239 | 6.0 | 14.0 | 0.00 | 0.00 | 0.00 | 30 | 1024.2 |
| 20260905202937 | 85 | 235 | 4.0 | 13.0 | 0.00 | 0.00 | 0.00 | 30 | 1024.1 |
| 20260905202721 | 85 | 238 | 3.0 | 13.0 | 0.00 | 0.00 | 0.00 | 30 | 1024.2 |
| 20260905202436 | 84 | 239 | 2.0 | 11.0 | 0.00 | 0.00 | 0.00 | 30 | 1023.8 |
| 20260905201936 | 85 | 251 | 3.0 | 16.0 | 0.00 | 0.00 | 0.00 | 30 | 1024.1 |
| 20260905201721 | 85 | 255 | 3.0 | 16.0 | 0.00 | 0.00 | 0.00 | 30 | 1024.1 |
| 20260905201436 | 85 | 247 | 4.0 | 16.0 | 0.00 | 0.00 | 0.00 | 30 | 1023.8 |
| 20260905200935 | 85 | 246 | 5.0 | 16.0 | 0.00 | 0.00 | 0.00 | 30 | 1023.9 |
| 20260905200720 | 85 | 238 | 6.0 | 16.0 | 0.00 | 0.00 | 0.00 | 29 | 1023.8 |
| 20260905200437 | 86 | 244 | 6.0 | 16.0 | 0.00 | 0.00 | 0.00 | 29 | 1023.9 |
| 20260905195936 | 86 | 232 | 6.0 | 15.0 | 0.00 | 0.00 | 0.00 | 29 | 1023.8 |
| 20260905195721 | 86 | 229 | 5.0 | 14.0 | 0.00 | 0.00 | 0.00 | 29 | 1023.7 |
| 20260905195436 | 86 | 235 | 5.0 | 14.0 | 0.00 | 0.00 | 0.00 | 29 | 1023.7 |
| 20260905195208 | 86 | 242 | 5.0 | 12.0 | 0.00 | 0.00 | 0.00 | 29 | 1023.7 |
| 20260905194721 | 86 | 244 | 5.0 | 12.0 | 0.00 | 0.00 | 0.00 | 29 | 1023.5 |
| 20260905194435 | 86 | 252 | 4.0 | 12.0 | 0.00 | 0.00 | 0.00 | 29 | 1023.4 |
| 20260905194206 | 85 | 267 | 3.0 | 8.0 | 0.00 | 0.00 | 0.00 | 29 | 1023.5 |
| 20260905193721 | 85 | 277 | 2.0 | 8.0 | 0.00 | 0.00 | 0.00 | 30 | 1023.5 |
| 20260905193703 | 85 | 263 | 2.0 | 8.0 | 0.00 | 0.00 | 0.00 | 29 | 1023.5 |
| 20260905193208 | 85 | 332 | 1.0 | 4.0 | 0.00 | 0.00 | 0.00 | 30 | 1023.3 |
| 20260905192721 | 85 | 338 | 1.0 | 5.0 | 0.00 | 0.00 | 0.00 | 30 | 1023.2 |
| 20260905192436 | 85 | 330 | 1.0 | 9.0 | 0.00 | 0.00 | 0.00 | 30 | 1023.2 |
| 20260905192206 | 85 | 264 | 1.0 | 10.0 | 0.00 | 0.00 | 0.00 | 30 | 1023.1 |
| 20260905191722 | 86 | 250 | 1.0 | 10.0 | 0.00 | 0.00 | 0.00 | 29 | 1023.1 |
| 20260905191436 | 86 | 251 | 2.0 | 10.0 | 0.00 | 0.00 | 0.00 | 29 | 1023.1 |
| 20260905190936 | 87 | 243 | 4.0 | 11.0 | 0.00 | 0.00 | 0.00 | 28 | 1022.9 |
| 20260905190719 | 87 | 250 | 5.0 | 11.0 | 0.00 | 0.00 | 0.00 | 28 | 1023.1 |
| 20260905190437 | 87 | 245 | 4.0 | 11.0 | 0.00 | 0.00 | 0.00 | 27 | 1022.9 |
| 20260905185936 | 87 | 247 | 4.0 | 12.0 | 0.00 | 0.00 | 0.00 | 27 | 1022.8 |
| 20260905185718 | 87 | 245 | 4.0 | 12.0 | 0.00 | 0.00 | 0.00 | 27 | 1022.7 |
| 20260905185436 | 87 | 242 | 4.0 | 12.0 | 0.00 | 0.00 | 0.00 | 27 | 1022.8 |
| 20260905184938 | 87 | 241 | 4.0 | 12.0 | 0.00 | 0.00 | 0.00 | 27 | 1022.7 |
| 20260905184717 | 87 | 240 | 4.0 | 12.0 | 0.00 | 0.00 | 0.00 | 27 | 1022.5 |
| 20260905184437 | 87 | 264 | 3.0 | 16.0 | 0.00 | 0.00 | 0.00 | 27 | 1022.5 |
| 20260905183938 | 87 | 283 | 2.0 | 16.0 | 0.00 | 0.00 | 0.00 | 28 | 1022.5 |
| 20260905183716 | 87 | 308 | 2.0 | 16.0 | 0.00 | 0.00 | 0.00 | 27 | 1022.4 |
| 20260905183437 | 88 | 273 | 4.0 | 16.0 | 0.00 | 0.00 | 0.00 | 27 | 1022.4 |
| 20260905182937 | 88 | 264 | 5.0 | 16.0 | 0.00 | 0.00 | 0.00 | 26 | 1022.3 |
| 20260905182716 | 88 | 262 | 5.0 | 16.0 | 0.00 | 0.00 | 0.00 | 26 | 1022.3 |
| 20260905182437 | 88 | 263 | 3.0 | 15.0 | 0.00 | 0.00 | 0.00 | 27 | 1022.3 |
| 20260905181935 | 88 | 264 | 2.0 | 8.0 | 0.00 | 0.00 | 0.00 | 27 | 1022.3 |
| 20260905181717 | 88 | 258 | 3.0 | 11.0 | 0.00 | 0.00 | 0.00 | 27 | 1022.1 |
| 20260905181437 | 88 | 265 | 3.0 | 11.0 | 0.00 | 0.00 | 0.00 | 27 | 1022.1 |
| 20260905180936 | 88 | 257 | 4.0 | 13.0 | 0.00 | 0.00 | 0.00 | 27 | 1022.0 |
| 20260905180716 | 88 | 248 | 5.0 | 14.0 | 0.00 | 0.00 | 0.00 | 27 | 1022.1 |
| 20260905180436 | 88 | 238 | 5.0 | 14.0 | 0.00 | 0.00 | 0.00 | 26 | 1022.1 |
| 20260905175935 | 89 | 236 | 5.0 | 14.0 | 0.00 | 0.00 | 0.00 | 26 | 1022.1 |
| 20260905175717 | 89 | 236 | 5.0 | 14.0 | 0.00 | 0.00 | 0.00 | 26 | 1022.1 |
| 20260905175435 | 89 | 241 | 5.0 | 14.0 | 0.00 | 0.00 | 0.00 | 26 | 1022.0 |
| 20260905174937 | 89 | 244 | 5.0 | 14.0 | 0.00 | 0.00 | 0.00 | 26 | 1021.9 |
| 20260905174716 | 89 | 246 | 4.0 | 13.0 | 0.00 | 0.00 | 0.00 | 26 | 1021.9 |
| 20260905174435 | 89 | 245 | 4.0 | 13.0 | 0.00 | 0.00 | 0.00 | 26 | 1021.8 |
| 20260905174211 | 89 | 246 | 5.0 | 13.0 | 0.00 | 0.00 | 0.00 | 26 | 1021.7 |
| 20260905173717 | 89 | 243 | 6.0 | 13.0 | 0.00 | 0.00 | 0.00 | 26 | 1021.7 |
| 20260905173435 | 89 | 246 | 6.0 | 15.0 | 0.00 | 0.00 | 0.00 | 26 | 1021.6 |
| 20260905172936 | 89 | 243 | 5.0 | 15.0 | 0.00 | 0.00 | 0.00 | 26 | 1021.7 |
| 20260905172716 | 90 | 243 | 5.0 | 15.0 | 0.00 | 0.00 | 0.00 | 25 | 1021.7 |
| 20260905172436 | 90 | 240 | 6.0 | 15.0 | 0.00 | 0.00 | 0.00 | 26 | 1021.5 |
| 20260905171936 | 90 | 234 | 6.0 | 15.0 | 0.00 | 0.00 | 0.00 | 25 | 1021.6 |
| 20260905171719 | 90 | 235 | 6.0 | 15.0 | 0.00 | 0.00 | 0.00 | 25 | 1021.7 |
| 20260905171707 | 90 | 230 | 5.0 | 14.0 | 0.00 | 0.00 | 0.00 | 25 | 1021.7 |
| 20260905170935 | 90 | 244 | 5.0 | 16.0 | 0.00 | 0.00 | 0.00 | 25 | 1021.7 |
| 20260905170716 | 91 | 241 | 5.0 | 16.0 | 0.00 | 0.00 | 0.00 | 25 | 1021.7 |
| 20260905170708 | 91 | 238 | 6.0 | 16.0 | 0.00 | 0.00 | 0.00 | 25 | 1021.7 |
| 20260905165937 | 91 | 233 | 5.0 | 16.0 | 0.00 | 0.00 | 0.00 | 25 | 1021.7 |
| 20260905165717 | 91 | 239 | 6.0 | 16.0 | 0.00 | 0.00 | 0.00 | 25 | 1021.8 |
| 20260905165708 | 91 | 249 | 6.0 | 17.0 | 0.00 | 0.00 | 0.00 | 25 | 1021.7 |
| 20260905164936 | 92 | 251 | 6.0 | 17.0 | 0.00 | 0.00 | 0.00 | 25 | 1021.8 |
| 20260905164717 | 92 | 248 | 6.0 | 17.0 | 0.00 | 0.00 | 0.00 | 25 | 1021.8 |
| 20260905164437 | 92 | 246 | 6.0 | 17.0 | 0.00 | 0.00 | 0.00 | 25 | 1021.8 |
| 20260905163937 | 92 | 246 | 6.0 | 17.0 | 0.00 | 0.00 | 0.00 | 24 | 1021.6 |
| 20260905163717 | 92 | 245 | 6.0 | 17.0 | 0.00 | 0.00 | 0.00 | 24 | 1021.8 |
| 20260905163437 | 92 | 242 | 6.0 | 12.0 | 0.00 | 0.00 | 0.00 | 25 | 1021.6 |
| 20260905162937 | 92 | 246 | 6.0 | 12.0 | 0.00 | 0.00 | 0.00 | 25 | 1021.8 |
| 20260905162717 | 92 | 244 | 6.0 | 12.0 | 0.00 | 0.00 | 0.00 | 25 | 1021.7 |
| 20260905162709 | 92 | 243 | 6.0 | 12.0 | 0.00 | 0.00 | 0.00 | 25 | 1021.7 |
| 20260905162208 | 92 | 236 | 7.0 | 12.0 | 0.00 | 0.00 | 0.00 | 25 | 1021.5 |
| 20260905161717 | 92 | 236 | 8.0 | 12.0 | 0.00 | 0.00 | 0.00 | 25 | 1021.6 |
| 20260905161437 | 92 | 240 | 9.0 | 12.0 | 0.00 | 0.00 | 0.00 | 24 | 1021.5 |
| 20260905160936 | 93 | 248 | 9.0 | 11.0 | 0.00 | 0.00 | 0.00 | 24 | 1021.6 |
| 20260905160713 | 93 | 262 | 8.0 | 14.0 | 0.00 | 0.00 | 0.00 | 24 | 1021.7 |
| 20260905160439 | 93 | 279 | 8.0 | 14.0 | 0.00 | 0.00 | 0.00 | 24 | 1021.6 |
| 20260905155936 | 92 | 272 | 7.0 | 14.0 | 0.00 | 0.00 | 0.00 | 25 | 1021.5 |
| 20260905155712 | 92 | 252 | 7.0 | 14.0 | 0.00 | 0.00 | 0.00 | 25 | 1021.5 |
| 20260905155436 | 92 | 238 | 7.0 | 14.0 | 0.00 | 0.00 | 0.00 | 25 | 1021.5 |
| 20260905155205 | 92 | 236 | 6.0 | 14.0 | 0.00 | 0.00 | 0.00 | 25 | 1021.5 |
| 20260905154712 | 92 | 236 | 6.0 | 14.0 | 0.00 | 0.00 | 0.00 | 25 | 1021.4 |
| 20260905154435 | 92 | 230 | 6.0 | 15.0 | 0.00 | 0.00 | 0.00 | 25 | 1021.5 |
| 20260905153937 | 93 | 230 | 6.0 | 15.0 | 0.00 | 0.00 | 0.00 | 24 | 1021.4 |
| 20260905153712 | 93 | 238 | 6.0 | 15.0 | 0.00 | 0.00 | 0.00 | 24 | 1021.5 |
| 20260905153437 | 93 | 243 | 7.0 | 16.0 | 0.00 | 0.00 | 0.00 | 24 | 1021.4 |
| 20260905152936 | 93 | 243 | 7.0 | 16.0 | 0.00 | 0.00 | 0.00 | 24 | 1021.2 |
| 20260905152712 | 93 | 237 | 7.0 | 16.0 | 0.00 | 0.00 | 0.00 | 24 | 1021.4 |
| 20260905152436 | 93 | 237 | 8.0 | 16.0 | 0.00 | 0.00 | 0.00 | 24 | 1021.4 |
| 20260905152208 | 93 | 247 | 11.0 | 16.0 | 0.00 | 0.00 | 0.00 | 24 | 1021.4 |
| 20260905151712 | 93 | 252 | 13.0 | 16.0 | 0.00 | 0.00 | 0.00 | 24 | 1021.4 |
| 20260905151434 | 93 | 253 | 13.0 | 16.0 | 0.00 | 0.00 | 0.00 | 24 | 1021.5 |
| 20260905150935 | 93 | 253 | 13.0 | 16.0 | 0.00 | 0.00 | 0.00 | 24 | 1021.4 |
| 20260905150919 | 93 | 253 | 13.0 | 16.0 | 0.00 | 0.00 | 0.00 | 24 | 1021.6 |
| 20260905145934 | 93 | 248 | 10.0 | 16.0 | 0.00 | 0.00 | 0.00 | 24 | 1021.4 |
| 20260905145711 | 93 | 248 | 9.0 | 16.0 | 0.00 | 0.00 | 0.00 | 24 | 1021.4 |
| 20260905145433 | 93 | 250 | 9.0 | 15.0 | 0.00 | 0.00 | 0.00 | 24 | 1021.3 |
| 20260905144948 | 93 | 241 | 8.0 | 13.0 | 0.00 | 0.00 | 0.00 | 24 | 1021.4 |
| 20260905144941 | 93 | 245 | 9.0 | 13.0 | 0.00 | 0.00 | 0.00 | 24 | 1021.3 |
| 20260905144918 | 93 | 241 | 9.0 | 13.0 | 0.00 | 0.00 | 0.00 | 24 | 1021.4 |
| 20260905143933 | 93 | 245 | 7.0 | 15.0 | 0.00 | 0.00 | 0.00 | 24 | 1021.1 |
| 20260905143707 | 93 | 244 | 6.0 | 15.0 | 0.00 | 0.00 | 0.00 | 24 | 1021.4 |
| 20260905143433 | 93 | 240 | 7.0 | 20.0 | 0.00 | 0.00 | 0.00 | 23 | 1021.3 |
| 20260905142933 | 94 | 235 | 8.0 | 20.0 | 0.00 | 0.00 | 0.00 | 23 | 1021.4 |
| 20260905142710 | 94 | 236 | 8.0 | 20.0 | 0.00 | 0.00 | 0.00 | 23 | 1021.5 |
| 20260905142433 | 94 | 240 | 10.0 | 20.0 | 0.00 | 0.00 | 0.00 | 23 | 1021.5 |
| 20260905141932 | 94 | 247 | 10.0 | 20.0 | 0.00 | 0.00 | 0.00 | 23 | 1021.3 |
| 20260905141708 | 94 | 245 | 10.0 | 21.0 | 0.00 | 0.00 | 0.00 | 23 | 1021.5 |
| 20260905141432 | 94 | 234 | 8.0 | 21.0 | 0.00 | 0.00 | 0.00 | 23 | 1021.5 |
| 20260905140932 | 94 | 230 | 9.0 | 21.0 | 0.00 | 0.00 | 0.00 | 23 | 1021.5 |
| 20260905140708 | 95 | 231 | 9.0 | 21.0 | 0.00 | 0.00 | 0.00 | 22 | 1021.3 |
| 20260905140432 | 95 | 240 | 9.0 | 21.0 | 0.00 | 0.00 | 0.00 | 22 | 1021.5 |
| 20260905135932 | 95 | 235 | 8.0 | 18.0 | 0.00 | 0.00 | 0.00 | 23 | 1021.3 |
| 20260905135706 | 94 | 235 | 8.0 | 18.0 | 0.00 | 0.00 | 0.00 | 23 | 1021.3 |
| 20260905135432 | 95 | 231 | 8.0 | 18.0 | 0.00 | 0.00 | 0.00 | 22 | 1021.5 |
| 20260905134932 | 95 | 224 | 7.0 | 20.0 | 0.00 | 0.00 | 0.00 | 22 | 1021.5 |
| 20260905134707 | 95 | 223 | 6.0 | 20.0 | 0.00 | 0.00 | 0.00 | 22 | 1021.4 |
| 20260905134432 | 95 | 224 | 7.0 | 20.0 | 0.00 | 0.00 | 0.00 | 22 | 1021.4 |
| 20260905133932 | 94 | 229 | 8.0 | 20.0 | 0.00 | 0.00 | 0.00 | 22 | 1021.4 |
| 20260905133708 | 95 | 231 | 8.0 | 20.0 | 0.00 | 0.00 | 0.00 | 22 | 1021.5 |
| 20260905133702 | 94 | 232 | 9.0 | 20.0 | 0.00 | 0.00 | 0.00 | 21 | 1021.5 |
| 20260905132932 | 95 | 240 | 8.0 | 18.0 | 0.00 | 0.00 | 0.00 | 21 | 1021.4 |
| 20260905132707 | 95 | 238 | 8.0 | 17.0 | 0.00 | 0.00 | 0.00 | 22 | 1021.5 |
| 20260905132432 | 94 | 240 | 7.0 | 17.0 | 0.00 | 0.00 | 0.00 | 22 | 1021.4 |
| 20260905131932 | 94 | 231 | 7.0 | 22.0 | 0.00 | 0.00 | 0.00 | 22 | 1021.6 |
| 20260905131708 | 95 | 228 | 6.0 | 22.0 | 0.00 | 0.00 | 0.00 | 22 | 1021.5 |
| 20260905131431 | 94 | 228 | 7.0 | 22.0 | 0.00 | 0.00 | 0.00 | 22 | 1021.6 |
| 20260905130930 | 94 | 232 | 8.0 | 22.0 | 0.00 | 0.00 | 0.00 | 21 | 1021.7 |
| 20260905130707 | 94 | 237 | 9.0 | 22.0 | 0.00 | 0.00 | 0.00 | 21 | 1021.7 |
| 20260905130430 | 94 | 238 | 9.0 | 22.0 | 0.00 | 0.00 | 0.00 | 21 | 1021.7 |
| 20260905125929 | 94 | 236 | 8.0 | 20.0 | 0.00 | 0.00 | 0.00 | 22 | 1021.6 |
| 20260905125708 | 94 | 237 | 9.0 | 20.0 | 0.00 | 0.00 | 0.00 | 22 | 1021.5 |
| 20260905125429 | 94 | 236 | 9.0 | 20.0 | 0.00 | 0.00 | 0.00 | 21 | 1021.6 |
| 20260905124929 | 94 | 237 | 10.0 | 20.0 | 0.00 | 0.00 | 0.00 | 21 | 1021.7 |
| 20260905124708 | 94 | 234 | 10.0 | 20.0 | 0.00 | 0.00 | 0.00 | 21 | 1021.7 |
| 20260905124428 | 94 | 232 | 9.0 | 20.0 | 0.00 | 0.00 | 0.00 | 21 | 1021.7 |
| 20260905123927 | 94 | 238 | 9.0 | 19.0 | 0.00 | 0.00 | 0.00 | 20 | 1021.4 |
| 20260905123708 | 94 | 239 | 9.0 | 19.0 | 0.00 | 0.00 | 0.00 | 20 | 1021.5 |
| 20260905123427 | 94 | 239 | 9.0 | 20.0 | 0.00 | 0.00 | 0.00 | 21 | 1021.5 |
| 20260905122928 | 94 | 231 | 8.0 | 20.0 | 0.00 | 0.00 | 0.00 | 21 | 1021.3 |
| 20260905122707 | 94 | 230 | 8.0 | 20.0 | 0.00 | 0.00 | 0.00 | 21 | 1021.5 |
| 20260905122426 | 94 | 230 | 8.0 | 20.0 | 0.00 | 0.00 | 0.00 | 20 | 1021.6 |
| 20260905121929 | 94 | 235 | 9.0 | 24.0 | 0.00 | 0.00 | 0.00 | 20 | 1021.4 |
| 20260905121707 | 94 | 236 | 9.0 | 24.0 | 0.00 | 0.00 | 0.00 | 21 | 1021.6 |
| 20260905121425 | 93 | 236 | 9.0 | 24.0 | 0.00 | 0.00 | 0.00 | 21 | 1021.4 |
| 20260905120925 | 93 | 235 | 9.0 | 24.0 | 0.00 | 0.00 | 0.00 | 21 | 1021.5 |
| 20260905120707 | 93 | 230 | 9.0 | 24.0 | 0.00 | 0.00 | 0.00 | 20 | 1021.4 |
| 20260905120426 | 94 | 224 | 8.0 | 24.0 | 0.00 | 0.00 | 0.00 | 20 | 1021.4 |
| 20260905115925 | 93 | 224 | 7.0 | 18.0 | 0.00 | 0.00 | 0.00 | 20 | 1021.4 |
| 20260905115711 | 94 | 232 | 8.0 | 18.0 | 0.00 | 0.00 | 0.00 | 20 | 1021.3 |
| 20260905115426 | 94 | 238 | 7.0 | 18.0 | 0.00 | 0.00 | 0.00 | 20 | 1021.5 |
| 20260905114926 | 93 | 242 | 7.0 | 21.0 | 0.00 | 0.00 | 0.00 | 20 | 1021.5 |
| 20260905114706 | 93 | 236 | 8.0 | 21.0 | 0.00 | 0.00 | 0.00 | 21 | 1021.5 |
| 20260905114426 | 93 | 231 | 7.0 | 21.0 | 0.00 | 0.00 | 0.00 | 21 | 1021.7 |
| 20260905113926 | 93 | 233 | 8.0 | 21.0 | 0.00 | 0.00 | 0.00 | 21 | 1021.1 |
| 20260905113706 | 93 | 235 | 8.0 | 21.0 | 0.00 | 0.00 | 0.00 | 21 | 1021.0 |
| 20260905113426 | 93 | 238 | 9.0 | 21.0 | 0.00 | 0.00 | 0.00 | 20 | 1021.1 |
| 20260905112926 | 93 | 237 | 8.0 | 19.0 | 0.00 | 0.00 | 0.00 | 20 | 1021.0 |
| 20260905112707 | 93 | 238 | 9.0 | 19.0 | 0.00 | 0.00 | 0.00 | 20 | 1021.2 |
| 20260905112425 | 92 | 243 | 9.0 | 19.0 | 0.00 | 0.00 | 0.00 | 21 | 1021.2 |
| 20260905111926 | 92 | 237 | 10.0 | 19.0 | 0.00 | 0.00 | 0.00 | 21 | 1021.3 |
| 20260905111706 | 93 | 235 | 9.0 | 19.0 | 0.00 | 0.00 | 0.00 | 20 | 1021.4 |
| 20260905111426 | 93 | 228 | 8.0 | 19.0 | 0.00 | 0.00 | 0.00 | 20 | 1021.5 |
| 20260905110926 | 92 | 238 | 7.0 | 19.0 | 0.00 | 0.00 | 0.00 | 21 | 1021.4 |
| 20260905110706 | 92 | 240 | 8.0 | 19.0 | 0.00 | 0.00 | 0.00 | 21 | 1021.4 |
| 20260905110426 | 92 | 249 | 8.0 | 19.0 | 0.00 | 0.00 | 0.00 | 20 | 1021.6 |
| 20260905110159 | 92 | 242 | 9.0 | 19.0 | 0.00 | 0.00 | 0.00 | 20 | 1021.5 |
| 20260905105706 | 92 | 241 | 9.0 | 19.0 | 0.00 | 0.00 | 0.00 | 20 | 1021.6 |
| 20260905105427 | 92 | 237 | 9.0 | 19.0 | 0.00 | 0.00 | 0.00 | 20 | 1021.4 |
| 20260905104927 | 92 | 238 | 8.0 | 18.0 | 0.00 | 0.00 | 0.00 | 20 | 1021.5 |
| 20260905104707 | 92 | 240 | 8.0 | 18.0 | 0.00 | 0.00 | 0.00 | 20 | 1021.4 |
| 20260905104428 | 92 | 242 | 8.0 | 18.0 | 0.00 | 0.00 | 0.00 | 20 | 1021.6 |
| 20260905103928 | 92 | 243 | 8.0 | 19.0 | 0.00 | 0.00 | 0.00 | 20 | 1021.3 |
| 20260905103706 | 92 | 236 | 9.0 | 19.0 | 0.00 | 0.00 | 0.00 | 20 | 1021.5 |
| 20260905103428 | 92 | 235 | 9.0 | 19.0 | 0.00 | 0.00 | 0.00 | 19 | 1021.4 |
| 20260905102927 | 92 | 233 | 9.0 | 19.0 | 0.00 | 0.00 | 0.00 | 20 | 1021.6 |
| 20260905102706 | 92 | 239 | 9.0 | 20.0 | 0.00 | 0.00 | 0.00 | 19 | 1021.4 |
| 20260905102653 | 92 | 238 | 9.0 | 22.0 | 0.00 | 0.00 | 0.00 | 20 | 1021.6 |
| 20260905101928 | 91 | 238 | 9.0 | 23.0 | 0.00 | 0.00 | 0.00 | 19 | 1021.7 |
| 20260905101707 | 91 | 233 | 9.0 | 23.0 | 0.00 | 0.00 | 0.00 | 20 | 1021.6 |
| 20260905101427 | 91 | 236 | 9.0 | 23.0 | 0.00 | 0.00 | 0.00 | 20 | 1021.6 |
| 20260905100928 | 91 | 243 | 10.0 | 23.0 | 0.00 | 0.00 | 0.00 | 19 | 1021.6 |
| 20260905100707 | 91 | 247 | 10.0 | 23.0 | 0.00 | 0.00 | 0.00 | 20 | 1021.5 |
| 20260905100427 | 91 | 246 | 10.0 | 23.0 | 0.00 | 0.00 | 0.00 | 20 | 1021.4 |
| 20260905095927 | 90 | 237 | 10.0 | 20.0 | 0.00 | 0.00 | 0.00 | 20 | 1021.5 |
| 20260905095707 | 90 | 235 | 10.0 | 20.0 | 0.00 | 0.00 | 0.00 | 20 | 1021.5 |
| 20260905095426 | 91 | 234 | 9.0 | 20.0 | 0.00 | 0.00 | 0.00 | 20 | 1021.4 |
| 20260905094926 | 90 | 236 | 8.0 | 21.0 | 0.00 | 0.00 | 0.00 | 20 | 1021.5 |
| 20260905094707 | 90 | 238 | 8.0 | 21.0 | 0.00 | 0.00 | 0.00 | 20 | 1021.4 |
| 20260905094425 | 90 | 239 | 9.0 | 21.0 | 0.00 | 0.00 | 0.00 | 20 | 1021.6 |
| 20260905093925 | 90 | 241 | 9.0 | 21.0 | 0.00 | 0.00 | 0.00 | 20 | 1021.4 |
| 20260905093707 | 90 | 243 | 9.0 | 21.0 | 0.00 | 0.00 | 0.00 | 19 | 1021.4 |
| 20260905093425 | 90 | 242 | 8.0 | 21.0 | 0.00 | 0.00 | 0.00 | 19 | 1021.6 |
| 20260905092925 | 90 | 239 | 9.0 | 20.0 | 0.00 | 0.00 | 0.00 | 20 | 1021.6 |
| 20260905092709 | 90 | 236 | 9.0 | 20.0 | 0.00 | 0.00 | 0.00 | 20 | 1021.4 |
| 20260905092658 | 89 | 237 | 9.0 | 20.0 | 0.00 | 0.00 | 0.00 | 21 | 1021.4 |
| 20260905091926 | 89 | 241 | 9.0 | 20.0 | 0.00 | 0.00 | 0.00 | 21 | 1021.4 |
| 20260905091708 | 89 | 240 | 9.0 | 20.0 | 0.00 | 0.00 | 0.00 | 21 | 1021.5 |
| 20260905091425 | 89 | 240 | 8.0 | 19.0 | 0.00 | 0.00 | 0.00 | 21 | 1021.5 |
| 20260905090925 | 89 | 241 | 7.0 | 17.0 | 0.00 | 0.00 | 0.00 | 22 | 1021.4 |
| 20260905090707 | 89 | 247 | 7.0 | 17.0 | 0.00 | 0.00 | 0.00 | 21 | 1021.4 |
| 20260905090426 | 89 | 245 | 7.0 | 17.0 | 0.00 | 0.00 | 0.00 | 21 | 1021.3 |
| 20260905085926 | 89 | 241 | 8.0 | 17.0 | 0.00 | 0.00 | 0.00 | 22 | 1021.6 |
| 20260905085708 | 89 | 242 | 7.0 | 18.0 | 0.00 | 0.00 | 0.00 | 22 | 1021.4 |
| 20260905085703 | 89 | 240 | 7.0 | 18.0 | 0.00 | 0.00 | 0.00 | 23 | 1021.6 |
| 20260905084927 | 88 | 243 | 6.0 | 18.0 | 0.00 | 0.00 | 0.00 | 23 | 1021.4 |
| 20260905084707 | 88 | 235 | 7.0 | 18.0 | 0.00 | 0.00 | 0.00 | 23 | 1021.4 |
| 20260905084423 | 88 | 239 | 7.0 | 18.0 | 0.00 | 0.00 | 0.00 | 24 | 1021.4 |
| 20260905083924 | 88 | 236 | 7.0 | 18.0 | 0.00 | 0.00 | 0.00 | 24 | 1021.3 |
| 20260905083706 | 88 | 234 | 7.0 | 18.0 | 0.00 | 0.00 | 0.00 | 23 | 1021.3 |
| 20260905083428 | 87 | 235 | 6.0 | 15.0 | 0.00 | 0.00 | 0.00 | 23 | 1021.3 |
| 20260905082922 | 87 | 240 | 5.0 | 12.0 | 0.00 | 0.00 | 0.00 | 27 | 1021.3 |
| 20260905082707 | 86 | 248 | 5.0 | 12.0 | 0.00 | 0.00 | 0.00 | 27 | 1021.5 |
| 20260905082422 | 86 | 246 | 5.0 | 13.0 | 0.00 | 0.00 | 0.00 | 27 | 1021.4 |
| 20260905081922 | 86 | 255 | 5.0 | 13.0 | 0.00 | 0.00 | 0.00 | 28 | 1021.3 |
| 20260905081707 | 86 | 255 | 4.0 | 13.0 | 0.00 | 0.00 | 0.00 | 29 | 1021.3 |
| 20260905081421 | 86 | 258 | 5.0 | 13.0 | 0.00 | 0.00 | 0.00 | 29 | 1021.3 |
| 20260905080922 | 85 | 244 | 4.0 | 13.0 | 0.00 | 0.00 | 0.00 | 29 | 1021.3 |
| 20260905080708 | 85 | 240 | 5.0 | 13.0 | 0.00 | 0.00 | 0.00 | 29 | 1021.2 |
| 20260905080421 | 85 | 244 | 4.0 | 11.0 | 0.00 | 0.00 | 0.00 | 29 | 1021.3 |
| 20260905075921 | 85 | 248 | 5.0 | 11.0 | 0.00 | 0.00 | 0.00 | 28 | 1021.2 |
| 20260905075707 | 85 | 249 | 5.0 | 11.0 | 0.00 | 0.00 | 0.00 | 29 | 1021.2 |
| 20260905075422 | 85 | 235 | 5.0 | 11.0 | 0.00 | 0.00 | 0.00 | 31 | 1021.3 |
| 20260905074922 | 84 | 226 | 3.0 | 12.0 | 0.00 | 0.00 | 0.00 | 29 | 1021.3 |
| 20260905074706 | 84 | 224 | 2.0 | 12.0 | 0.00 | 0.00 | 0.00 | 30 | 1021.1 |
| 20260905074422 | 84 | 234 | 2.0 | 12.0 | 0.00 | 0.00 | 0.00 | 31 | 1021.2 |
| 20260905074154 | 84 | 244 | 5.0 | 12.0 | 0.00 | 0.00 | 0.00 | 31 | 1021.4 |